GIPSM EIDL-EGPK

Flight info

Callsign GIPSM
Flight time 1h 3m
Altitude 5500
Route CBL
Aircraft BE58/L-SDFGRY/C

Departure

Time 2026-04-23 09:18
Airport Donegal Airport (EIDL)

Arrival

Time 2026-04-23 10:21
Airport Glasgow Prestwick Airport (EGPK)
Time Latitude Longitude Altitude Speed Heading
2026-04-23 09:09 55.03849 -8.34269 5 ft 0 kts 288°
2026-04-23 09:14 55.03850 -8.34272 5 ft 2 kts 296°
2026-04-23 09:14 55.03875 -8.34351 6 ft 11 kts 292°
2026-04-23 09:15 55.03959 -8.34384 6 ft 18 kts 20°
2026-04-23 09:15 55.04094 -8.34299 6 ft 22 kts 20°
2026-04-23 09:15 55.04255 -8.34196 6 ft 26 kts 22°
2026-04-23 09:15 55.04433 -8.34076 8 ft 28 kts 21°
2026-04-23 09:16 55.04601 -8.33966 11 ft 22 kts 21°
2026-04-23 09:16 55.04758 -8.33865 12 ft 25 kts 22°
2026-04-23 09:16 55.04910 -8.33763 14 ft 12 kts 24°
2026-04-23 09:16 55.04937 -8.33760 15 ft 8 kts 199°
2026-04-23 09:17 55.04810 -8.33845 13 ft 37 kts 200°
2026-04-23 09:17 55.04379 -8.34127 7 ft 85 kts 197°
2026-04-23 09:17 55.03799 -8.34582 126 ft 91 kts 197°
2026-04-23 09:17 55.03238 -8.35126 337 ft 93 kts 201°
2026-04-23 09:18 55.02651 -8.35684 518 ft 99 kts 206°
2026-04-23 09:18 55.02290 -8.36847 517 ft 132 kts 265°
2026-04-23 09:18 55.02531 -8.38397 695 ft 129 kts 295°
2026-04-23 09:18 55.03198 -8.39488 695 ft 137 kts 343°
2026-04-23 09:19 55.04104 -8.39570 776 ft 129 kts 18°
2026-04-23 09:19 55.05036 -8.39282 850 ft 131 kts 17°
2026-04-23 09:19 55.05951 -8.39000 897 ft 136 kts 20°
2026-04-23 09:19 55.06893 -8.38590 971 ft 137 kts 22°
2026-04-23 09:20 55.07836 -8.38146 1049 ft 138 kts 23°
2026-04-23 09:20 55.08765 -8.37628 1120 ft 135 kts 36°
2026-04-23 09:20 55.09463 -8.36568 1144 ft 129 kts 64°
2026-04-23 09:20 55.09859 -8.35209 1297 ft 119 kts 75°
2026-04-23 09:21 55.10196 -8.33887 1364 ft 121 kts 76°
2026-04-23 09:21 55.10543 -8.32513 1444 ft 121 kts 76°
2026-04-23 09:21 55.10877 -8.31171 1521 ft 121 kts 76°
2026-04-23 09:21 55.11219 -8.29800 1551 ft 125 kts 75°
2026-04-23 09:22 55.11589 -8.28436 1660 ft 122 kts 73°
2026-04-23 09:22 55.12002 -8.27106 1692 ft 127 kts 70°
2026-04-23 09:22 55.12421 -8.25752 1799 ft 123 kts 73°
2026-04-23 09:22 55.12757 -8.24351 1803 ft 127 kts 79°
2026-04-23 09:23 55.13044 -8.22878 1855 ft 127 kts 81°
2026-04-23 09:23 55.13309 -8.21372 1836 ft 131 kts 82°
2026-04-23 09:23 55.13534 -8.19852 1899 ft 126 kts 85°
2026-04-23 09:23 55.13746 -8.18300 1886 ft 131 kts 83°
2026-04-23 09:24 55.14006 -8.16752 1943 ft 130 kts 81°
2026-04-23 09:24 55.14302 -8.15213 1942 ft 133 kts 79°
2026-04-23 09:24 55.14584 -8.13644 2001 ft 130 kts 83°
2026-04-23 09:24 55.14811 -8.12121 2027 ft 130 kts 83°
2026-04-23 09:25 55.15051 -8.10543 2087 ft 135 kts 82°
2026-04-23 09:25 55.15328 -8.09070 2498 ft 123 kts 80°
2026-04-23 09:25 55.15630 -8.07718 2865 ft 115 kts 78°
2026-04-23 09:25 55.15959 -8.06454 3169 ft 116 kts 77°
2026-04-23 09:26 55.16340 -8.05084 3363 ft 123 kts 76°
2026-04-23 09:26 55.16709 -8.03798 3695 ft 118 kts 76°
2026-04-23 09:26 55.17097 -8.02456 3887 ft 124 kts 75°
2026-04-23 09:26 55.17465 -8.01097 4182 ft 121 kts 76°
2026-04-23 09:27 55.17863 -7.99740 4411 ft 126 kts 72°
2026-04-23 09:27 55.18292 -7.98334 4670 ft 126 kts 72°
2026-04-23 09:27 55.18713 -7.96943 4911 ft 127 kts 72°
2026-04-23 09:27 55.19138 -7.95493 5143 ft 128 kts 73°
2026-04-23 09:28 55.19525 -7.94067 5373 ft 128 kts 75°
2026-04-23 09:28 55.19893 -7.92554 5486 ft 132 kts 77°
2026-04-23 09:28 55.20251 -7.90996 5525 ft 139 kts 72°
2026-04-23 09:28 55.20666 -7.89380 5511 ft 145 kts 75°
2026-04-23 09:29 55.21057 -7.87667 5546 ft 146 kts 76°
2026-04-23 09:29 55.21437 -7.85960 5625 ft 145 kts 76°
2026-04-23 09:29 55.21833 -7.84250 5611 ft 150 kts 75°
2026-04-23 09:29 55.22212 -7.82509 5618 ft 152 kts 77°
2026-04-23 09:30 55.22568 -7.80709 5613 ft 154 kts 78°
2026-04-23 09:30 55.22918 -7.78908 5612 ft 155 kts 77°
2026-04-23 09:30 55.23278 -7.77091 5596 ft 156 kts 78°
2026-04-23 09:30 55.23608 -7.75251 5620 ft 155 kts 79°
2026-04-23 09:31 55.23940 -7.73417 5609 ft 157 kts 79°
2026-04-23 09:31 55.24278 -7.71590 5608 ft 157 kts 78°
2026-04-23 09:31 55.24628 -7.69766 5604 ft 157 kts 78°
2026-04-23 09:31 55.24981 -7.67944 5570 ft 160 kts 77°
2026-04-23 09:32 55.25354 -7.66100 5612 ft 158 kts 76°
2026-04-23 09:32 55.25751 -7.64269 5581 ft 161 kts 75°
2026-04-23 09:32 55.26186 -7.62433 5592 ft 160 kts 73°
2026-04-23 09:32 55.26671 -7.60600 5594 ft 161 kts 70°
2026-04-23 09:33 55.27192 -7.58820 5578 ft 163 kts 69°
2026-04-23 09:33 55.27735 -7.57060 5582 ft 163 kts 67°
2026-04-23 09:33 55.28299 -7.55338 5592 ft 162 kts 66°
2026-04-23 09:33 55.28874 -7.53609 5580 ft 162 kts 68°
2026-04-23 09:34 55.29355 -7.51807 5568 ft 161 kts 72°
2026-04-23 09:34 55.29819 -7.49991 5585 ft 160 kts 71°
2026-04-23 09:34 55.30308 -7.48202 5575 ft 162 kts 70°
2026-04-23 09:34 55.30795 -7.46422 5574 ft 162 kts 70°
2026-04-23 09:35 55.31285 -7.44630 5587 ft 161 kts 70°
2026-04-23 09:35 55.31773 -7.42870 5575 ft 162 kts 70°
2026-04-23 09:35 55.32285 -7.41093 5582 ft 162 kts 69°
2026-04-23 09:35 55.32811 -7.39360 5585 ft 162 kts 67°
2026-04-23 09:36 55.33375 -7.37626 5579 ft 163 kts 65°
2026-04-23 09:36 55.33903 -7.35893 5583 ft 161 kts 70°
2026-04-23 09:36 55.34354 -7.34080 5584 ft 160 kts 75°
2026-04-23 09:36 55.34772 -7.32287 5591 ft 160 kts 75°
2026-04-23 09:37 55.35194 -7.30444 5588 ft 160 kts 75°
2026-04-23 09:37 55.35619 -7.28589 5599 ft 160 kts 75°
2026-04-23 09:37 55.36045 -7.26767 5610 ft 160 kts 74°
2026-04-23 09:37 55.36490 -7.24931 5606 ft 160 kts 73°
2026-04-23 09:38 55.36909 -7.23092 5609 ft 158 kts 79°
2026-04-23 09:38 55.37171 -7.21162 5594 ft 158 kts 85°
2026-04-23 09:38 55.37387 -7.19233 5625 ft 155 kts 86°
2026-04-23 09:38 55.37590 -7.17301 5605 ft 157 kts 86°
2026-04-23 09:39 55.37782 -7.15384 5613 ft 156 kts 86°
2026-04-23 09:39 55.37973 -7.13475 5628 ft 156 kts 86°
2026-04-23 09:39 55.38172 -7.11523 5615 ft 157 kts 86°
2026-04-23 09:39 55.38381 -7.09591 5635 ft 156 kts 85°
2026-04-23 09:40 55.38611 -7.07646 5622 ft 157 kts 84°
2026-04-23 09:40 55.38869 -7.05680 5628 ft 157 kts 82°
2026-04-23 09:40 55.39141 -7.03772 5633 ft 157 kts 83°
2026-04-23 09:40 55.39368 -7.01872 5612 ft 158 kts 86°
2026-04-23 09:41 55.39543 -6.99996 5628 ft 156 kts 88°
2026-04-23 09:41 55.39696 -6.98086 5625 ft 156 kts 88°
2026-04-23 09:41 55.39841 -6.96188 5628 ft 156 kts 88°
2026-04-23 09:41 55.39981 -6.94302 5621 ft 157 kts 89°
2026-04-23 09:42 55.40121 -6.92417 5625 ft 156 kts 89°
2026-04-23 09:42 55.40267 -6.90485 5632 ft 156 kts 88°
2026-04-23 09:42 55.40416 -6.88592 5620 ft 157 kts 88°
2026-04-23 09:42 55.40574 -6.86691 5628 ft 156 kts 88°
2026-04-23 09:43 55.40665 -6.84808 5596 ft 156 kts 94°
2026-04-23 09:43 55.40707 -6.82895 5606 ft 155 kts 94°
2026-04-23 09:43 55.40745 -6.80994 5604 ft 155 kts 94°
2026-04-23 09:43 55.40782 -6.79108 5591 ft 156 kts 94°
2026-04-23 09:44 55.40821 -6.77210 5602 ft 154 kts 94°
2026-04-23 09:44 55.40865 -6.75315 5592 ft 155 kts 93°
2026-04-23 09:44 55.40912 -6.73400 5581 ft 156 kts 93°
2026-04-23 09:44 55.40960 -6.71511 5595 ft 155 kts 93°
2026-04-23 09:45 55.41008 -6.69619 5581 ft 155 kts 93°
2026-04-23 09:45 55.41035 -6.67739 5562 ft 155 kts 95°
2026-04-23 09:45 55.41037 -6.65834 5568 ft 154 kts 96°
2026-04-23 09:45 55.41027 -6.63936 5549 ft 155 kts 96°
2026-04-23 09:46 55.41006 -6.62053 5550 ft 154 kts 97°
2026-04-23 09:46 55.40974 -6.60158 5540 ft 155 kts 97°
2026-04-23 09:46 55.40931 -6.58286 5544 ft 154 kts 98°
2026-04-23 09:46 55.40877 -6.56406 5531 ft 154 kts 98°
2026-04-23 09:47 55.40835 -6.54503 5524 ft 155 kts 95°
2026-04-23 09:47 55.40871 -6.52619 5525 ft 156 kts 91°
2026-04-23 09:47 55.40990 -6.50705 5514 ft 157 kts 88°
2026-04-23 09:47 55.41129 -6.48799 5509 ft 157 kts 88°
2026-04-23 09:48 55.41262 -6.46904 5509 ft 157 kts 89°
2026-04-23 09:48 55.41392 -6.44993 5508 ft 156 kts 89°
2026-04-23 09:48 55.41516 -6.43106 5496 ft 157 kts 89°
2026-04-23 09:48 55.41645 -6.41210 5490 ft 157 kts 88°
2026-04-23 09:49 55.41786 -6.39313 5498 ft 156 kts 88°
2026-04-23 09:49 55.41938 -6.37411 5475 ft 157 kts 87°
2026-04-23 09:49 55.42101 -6.35506 5482 ft 157 kts 86°
2026-04-23 09:49 55.42275 -6.33603 5479 ft 157 kts 87°
2026-04-23 09:50 55.42450 -6.31753 5470 ft 157 kts 87°
2026-04-23 09:50 55.42626 -6.29870 5481 ft 156 kts 87°
2026-04-23 09:50 55.42798 -6.27989 5474 ft 157 kts 87°
2026-04-23 09:50 55.42968 -6.26077 5474 ft 156 kts 88°
2026-04-23 09:51 55.43127 -6.24226 5481 ft 156 kts 88°
2026-04-23 09:51 55.43273 -6.22447 5475 ft 156 kts 88°
2026-04-23 09:51 55.43421 -6.20538 5465 ft 156 kts 89°
2026-04-23 09:51 55.43559 -6.18634 5472 ft 156 kts 89°
2026-04-23 09:52 55.43685 -6.16751 5467 ft 156 kts 90°
2026-04-23 09:52 55.43797 -6.14856 5468 ft 155 kts 90°
2026-04-23 09:52 55.43894 -6.12951 5453 ft 156 kts 91°
2026-04-23 09:52 55.43972 -6.11063 5476 ft 153 kts 92°
2026-04-23 09:53 55.44028 -6.09204 5461 ft 155 kts 93°
2026-04-23 09:53 55.44061 -6.07294 5450 ft 155 kts 94°
2026-04-23 09:53 55.44070 -6.05413 5463 ft 153 kts 96°
2026-04-23 09:53 55.44067 -6.03535 5457 ft 154 kts 96°
2026-04-23 09:54 55.44059 -6.01652 5454 ft 154 kts 96°
2026-04-23 09:54 55.44045 -5.99775 5474 ft 153 kts 97°
2026-04-23 09:54 55.44021 -5.97900 5456 ft 154 kts 97°
2026-04-23 09:54 55.43985 -5.96019 5468 ft 153 kts 98°
2026-04-23 09:55 55.43933 -5.94138 5474 ft 153 kts 99°
2026-04-23 09:55 55.43863 -5.92289 5453 ft 153 kts 99°
2026-04-23 09:55 55.43769 -5.90424 5472 ft 151 kts 101°
2026-04-23 09:55 55.43650 -5.88578 5458 ft 152 kts 102°
2026-04-23 09:56 55.43501 -5.86742 5460 ft 152 kts 104°
2026-04-23 09:56 55.43316 -5.84907 5474 ft 151 kts 106°
2026-04-23 09:56 55.43096 -5.83106 5468 ft 150 kts 108°
2026-04-23 09:56 55.42903 -5.81305 5463 ft 152 kts 103°
2026-04-23 09:57 55.42792 -5.79449 5486 ft 152 kts 99°
2026-04-23 09:57 55.42764 -5.77594 5464 ft 154 kts 95°
2026-04-23 09:57 55.42813 -5.75711 5470 ft 155 kts 91°
2026-04-23 09:57 55.42941 -5.73804 5478 ft 156 kts 87°
2026-04-23 09:58 55.43137 -5.71934 5466 ft 158 kts 84°
2026-04-23 09:58 55.43403 -5.70048 5489 ft 157 kts 80°
2026-04-23 09:58 55.43734 -5.68207 5482 ft 160 kts 76°
2026-04-23 09:58 55.44190 -5.66418 5480 ft 162 kts 68°
2026-04-23 09:59 55.44798 -5.64708 5483 ft 164 kts 60°
2026-04-23 09:59 55.45517 -5.63169 5487 ft 166 kts 52°
2026-04-23 09:59 55.46350 -5.61704 5469 ft 168 kts 52°
2026-04-23 09:59 55.47111 -5.60169 5470 ft 166 kts 57°
2026-04-23 10:00 55.47794 -5.58552 5483 ft 163 kts 59°
2026-04-23 10:00 55.48447 -5.56904 5333 ft 166 kts 62°
2026-04-23 10:00 55.49050 -5.55187 5178 ft 167 kts 64°
2026-04-23 10:00 55.49677 -5.53433 5013 ft 169 kts 63°
2026-04-23 10:01 55.50304 -5.51709 4872 ft 168 kts 63°
2026-04-23 10:01 55.50917 -5.49964 4750 ft 167 kts 64°
2026-04-23 10:01 55.51513 -5.48224 4630 ft 166 kts 65°
2026-04-23 10:01 55.52096 -5.46462 4496 ft 165 kts 66°
2026-04-23 10:02 55.52647 -5.44695 4371 ft 164 kts 68°
2026-04-23 10:02 55.53159 -5.42925 4250 ft 163 kts 70°
2026-04-23 10:02 55.53632 -5.41105 4122 ft 162 kts 72°
2026-04-23 10:02 55.54063 -5.39297 4008 ft 160 kts 72°
2026-04-23 10:03 55.54533 -5.37516 3878 ft 162 kts 70°
2026-04-23 10:03 55.55043 -5.35753 3764 ft 161 kts 68°
2026-04-23 10:03 55.55584 -5.34002 3652 ft 161 kts 68°
2026-04-23 10:03 55.56115 -5.32342 3544 ft 160 kts 67°
2026-04-23 10:04 55.56676 -5.30614 3431 ft 160 kts 67°
2026-04-23 10:04 55.57193 -5.29059 3321 ft 160 kts 66°
2026-04-23 10:04 55.57750 -5.27354 3216 ft 158 kts 69°
2026-04-23 10:04 55.58256 -5.25637 3124 ft 157 kts 69°
2026-04-23 10:05 55.58767 -5.23915 3011 ft 157 kts 68°
2026-04-23 10:05 55.59336 -5.22279 2913 ft 159 kts 60°
2026-04-23 10:05 55.60050 -5.20772 2819 ft 160 kts 54°
2026-04-23 10:05 55.60755 -5.19281 2712 ft 156 kts 60°
2026-04-23 10:06 55.61402 -5.17730 2587 ft 158 kts 59°
2026-04-23 10:06 55.62081 -5.16214 2576 ft 156 kts 57°
2026-04-23 10:06 55.62786 -5.14750 2545 ft 155 kts 55°
2026-04-23 10:06 55.63482 -5.13280 2464 ft 156 kts 57°
2026-04-23 10:07 55.64133 -5.11775 2432 ft 153 kts 58°
2026-04-23 10:07 55.64754 -5.10227 2368 ft 153 kts 61°
2026-04-23 10:07 55.65337 -5.08653 2305 ft 153 kts 63°
2026-04-23 10:07 55.65883 -5.07059 2260 ft 151 kts 65°
2026-04-23 10:08 55.66397 -5.05443 2193 ft 151 kts 65°
2026-04-23 10:08 55.66895 -5.03803 2135 ft 151 kts 66°
2026-04-23 10:08 55.67379 -5.02183 2092 ft 150 kts 66°
2026-04-23 10:09 55.68314 -4.98876 1982 ft 149 kts 67°
2026-04-23 10:09 55.68768 -4.97205 1925 ft 149 kts 67°
2026-04-23 10:09 55.69241 -4.95570 1873 ft 148 kts 67°
2026-04-23 10:09 55.69577 -4.93845 1827 ft 146 kts 79°
2026-04-23 10:10 55.69621 -4.92086 1809 ft 144 kts 99°
2026-04-23 10:10 55.69305 -4.90413 1758 ft 143 kts 118°
2026-04-23 10:10 55.68651 -4.89107 1749 ft 143 kts 141°
2026-04-23 10:10 55.67774 -4.88223 1734 ft 143 kts 148°
2026-04-23 10:11 55.66922 -4.87424 1783 ft 139 kts 148°
2026-04-23 10:11 55.66058 -4.86578 1710 ft 143 kts 147°
2026-04-23 10:11 55.65199 -4.85695 1744 ft 140 kts 145°
2026-04-23 10:11 55.64393 -4.84769 1751 ft 139 kts 141°
2026-04-23 10:12 55.63674 -4.83613 1705 ft 140 kts 128°
2026-04-23 10:12 55.63128 -4.82220 1722 ft 137 kts 121°
2026-04-23 10:12 55.62635 -4.80800 1750 ft 135 kts 119°
2026-04-23 10:12 55.62176 -4.79329 1706 ft 138 kts 115°
2026-04-23 10:13 55.61779 -4.77780 1732 ft 135 kts 112°
2026-04-23 10:13 55.61425 -4.76243 1725 ft 136 kts 110°
2026-04-23 10:13 55.61068 -4.74687 1714 ft 136 kts 113°
2026-04-23 10:13 55.60596 -4.73225 1711 ft 137 kts 123°
2026-04-23 10:14 55.59981 -4.71914 1702 ft 138 kts 131°
2026-04-23 10:14 55.59239 -4.70859 1707 ft 139 kts 144°
2026-04-23 10:14 55.58400 -4.69973 1708 ft 138 kts 143°
2026-04-23 10:14 55.57746 -4.68758 1631 ft 141 kts 121°
2026-04-23 10:15 55.57155 -4.66734 1685 ft 135 kts 114°
2026-04-23 10:15 55.56893 -4.65731 1672 ft 136 kts 112°
2026-04-23 10:15 55.56506 -4.64171 1623 ft 139 kts 112°
2026-04-23 10:15 55.56139 -4.62617 1647 ft 137 kts 110°
2026-04-23 10:16 55.55753 -4.61076 1614 ft 138 kts 114°
2026-04-23 10:16 55.55334 -4.59534 1605 ft 138 kts 115°
2026-04-23 10:16 55.54859 -4.58049 1553 ft 142 kts 118°
2026-04-23 10:16 55.54343 -4.56546 1507 ft 143 kts 118°
2026-04-23 10:17 55.53848 -4.55006 1386 ft 149 kts 116°
2026-04-23 10:17 55.53318 -4.53378 1247 ft 153 kts 121°
2026-04-23 10:17 55.52666 -4.51954 1253 ft 148 kts 141°
2026-04-23 10:17 55.51661 -4.51552 1130 ft 156 kts 187°
2026-04-23 10:18 55.50642 -4.52237 1009 ft 158 kts 199°
2026-04-23 10:18 55.49659 -4.52995 1062 ft 149 kts 201°
2026-04-23 10:18 55.48755 -4.53803 1046 ft 141 kts 206°
2026-04-23 10:18 55.47890 -4.54532 1025 ft 133 kts 199°
2026-04-23 10:19 55.47096 -4.55140 951 ft 119 kts 201°
2026-04-23 10:19 55.46394 -4.55859 813 ft 118 kts 221°
2026-04-23 10:19 55.46014 -4.57065 759 ft 108 kts 256°
2026-04-23 10:19 55.45961 -4.58336 732 ft 102 kts 277°
2026-04-23 10:20 55.46182 -4.59488 705 ft 95 kts 309°
2026-04-23 10:20 55.46711 -4.60130 619 ft 94 kts 352°
2026-04-23 10:20 55.47543 -4.59768 454 ft 95 kts 28°
2026-04-23 10:20 55.47946 -4.59423 347 ft 100 kts 25°
2026-04-23 10:21 55.48605 -4.58927 146 ft 101 kts 25°
2026-04-23 10:21 55.49182 -4.58475 67 ft 78 kts 21°
2026-04-23 10:21 55.49601 -4.58159 67 ft 51 kts 26°
2026-04-23 10:21 55.49733 -4.58161 67 ft 14 kts 300°
2026-04-23 10:22 55.49781 -4.58305 67 ft 13 kts 321°
2026-04-23 10:22 55.49864 -4.58289 67 ft 12 kts 23°
2026-04-23 10:22 55.49942 -4.58228 67 ft 12 kts 25°
2026-04-23 10:22 55.50017 -4.58170 67 ft 11 kts 21°
2026-04-23 10:23 55.50094 -4.58111 67 ft 12 kts 24°
2026-04-23 10:23 55.50175 -4.58047 67 ft 12 kts 24°
2026-04-23 10:23 55.50258 -4.58017 67 ft 13 kts 317°
2026-04-23 10:23 55.50312 -4.58162 67 ft 14 kts 302°
2026-04-23 10:24 55.50369 -4.58325 67 ft 16 kts 299°
2026-04-23 10:24 55.50429 -4.58501 67 ft 17 kts 302°
2026-04-23 10:24 55.50493 -4.58686 67 ft 18 kts 297°
2026-04-23 10:24 55.50549 -4.58890 67 ft 18 kts 294°
2026-04-23 10:25 55.50612 -4.59094 67 ft 19 kts 300°
2026-04-23 10:25 55.50677 -4.59277 67 ft 11 kts 324°
2026-04-23 10:25 55.50726 -4.59185 67 ft 12 kts 65°
2026-04-23 10:25 55.50762 -4.59046 67 ft 12 kts 63°
2026-04-23 10:26 55.50824 -4.59003 67 ft 11 kts 64°
2026-04-23 10:26 55.50860 -4.58871 67 ft 12 kts 63°
2026-04-23 10:26 55.50899 -4.58731 67 ft 13 kts 64°
2026-04-23 10:26 55.50939 -4.58583 67 ft 13 kts 63°
2026-04-23 10:27 55.50980 -4.58433 67 ft 13 kts 64°
2026-04-23 10:27 55.51022 -4.58279 67 ft 14 kts 64°
2026-04-23 10:27 55.51072 -4.58196 67 ft 3 kts 53°
2026-04-23 10:27 55.51070 -4.58184 67 ft 0 kts 117°